CLUSTER II-FM8 (TANGO)

Last updated on Nov. 15, 2019, 4:21 a.m. UTC

1 26464U 00045B   19318.37909337  .00000588  00000-0  00000+0 0  9994
2 26464 131.4576 340.0163 4206398 177.2281 186.0952  0.44219393 57309
UTC
Height (km)
Latitude
Longitude
Inclination
Orbital Period
UTC large
Height (km)
Speed (km/s)
/
Latitude / Longitude
Inclination (degrees)
Orbital Period (minutes)
Azimuth
Elevation
Range (km)
Doppler Factor
iOS Compass Heading
iOS Angle

Next 30 passes for location: Hong Kong

Rise time Rise Azimuth (degrees) Set time Set Azimuth (degrees) Duration Max altitude (degrees)

No matching passes for this satellites